Total_Precipitation_Accumulation
2.32 2.52 2.51 2.52 2.60 2.70 2.55 2.28 2.22 2.26 2.39 2.46 2.57 2.55 2.46 2.48 2.61 2.68 2.64 2.97 3.13 3.15 3.14 3.15 3.13 3.29 3.27 3.15 3.26 3.44 3.72 3.81 3.39 2.80 2.67 2.62 2.63 2.50 2.49 2.32 2.19 2.15 1.94
2.22 2.44 2.51 2.51 2.57 2.62 2.48 2.29 2.29 2.37 2.39 2.34 2.40 2.39 2.26 2.29 2.51 2.53 2.58 2.90 3.06 2.93 2.95 2.99 2.75 2.85 2.95 2.81 2.96 3.03 3.18 3.45 3.35 2.98 2.89 2.85 2.82 2.73 2.72 2.63 2.33 2.09 1.83
2.15 2.46 2.63 2.69 2.67 2.60 2.41 2.21 2.12 2.08 2.12 2.13 2.14 2.16 2.21 2.37 2.47 2.46 2.49 2.49 2.52 2.60 2.83 2.95 2.74 2.73 2.64 2.66 2.71 2.69 2.76 2.87 3.15 3.04 2.87 2.92 2.85 2.86 2.80 2.58 2.37 2.24 1.85
2.08 2.29 2.45 2.35 2.29 2.31 2.18 1.99 1.90 1.90 1.93 2.00 2.08 2.17 2.23 2.30 2.35 2.44 2.50 2.41 2.38 2.43 2.58 2.67 2.64 2.59 2.51 2.63 2.56 2.59 2.66 2.83 3.00 3.04 2.91 3.01 2.99 2.95 3.02 2.80 2.80 2.61 2.32
1.74 1.85 2.02 2.02 1.98 1.97 2.00 2.02 2.03 2.07 2.00 2.08 2.15 2.16 2.14 2.11 2.04 2.14 2.21 2.25 2.40 2.34 2.24 2.22 2.21 2.26 2.25 2.31 2.15 2.36 2.63 2.79 2.87 2.89 2.88 3.06 3.20 3.25 3.08 3.02 3.06 2.97 2.71
1.46 1.59 1.85 1.99 2.02 2.01 2.07 2.21 2.25 2.19 2.14 2.15 2.09 2.12 2.09 1.79 1.99 2.06 2.07 2.17 2.30 2.31 2.17 2.03 1.92 1.90 1.84 1.88 1.86 1.97 2.27 2.49 2.63 2.79 2.77 2.88 3.10 3.30 3.45 3.41 3.27 3.16 3.03
1.49 1.64 1.86 2.00 2.10 2.17 2.18 2.30 2.24 2.23 2.28 2.19 2.10 2.09 2.10 2.17 2.25 2.06 1.91 1.87 1.98 2.03 1.99 1.96 1.70 1.60 1.81 1.78 1.84 1.81 1.83 2.00 2.18 2.44 2.54 2.48 2.69 3.01 3.34 3.24 3.41 3.46 3.33
1.74 1.93 2.05 2.20 2.17 2.15 2.16 2.21 2.31 2.41 2.45 2.42 2.33 2.24 2.22 2.19 2.18 1.96 1.95 1.84 1.84 1.86 1.88 1.91 1.89 1.81 1.87 2.01 1.98 1.89 1.76 1.74 1.87 1.95 2.03 2.18 2.43 2.81 3.14 3.11 3.20 3.29 3.28
1.89 2.00 2.16 2.27 2.30 2.31 2.31 2.30 2.43 2.55 2.52 2.46 2.39 2.41 2.36 2.36 2.40 2.18 2.19 2.01 2.01 2.02 2.05 2.06 2.04 1.93 2.09 2.03 1.93 1.91 1.86 1.85 1.94 2.06 1.99 2.06 2.30 2.48 2.70 2.81 2.80 2.89 2.78
1.88 2.01 2.18 2.41 2.46 2.47 2.62 2.72 2.70 2.67 2.55 2.56 2.56 2.52 2.51 2.53 2.75 2.56 2.40 2.21 2.20 2.20 2.30 2.30 2.35 2.18 2.16 2.09 1.94 1.95 1.95 1.98 2.10 2.04 2.00 1.95 1.97 2.22 2.51 2.54 2.74 2.99 2.83
1.91 2.06 2.25 2.43 2.53 2.59 2.78 2.87 2.87 2.82 2.82 2.77 2.68 2.70 2.69 2.66 2.83 2.58 2.38 2.22 2.27 2.43 2.44 2.37 2.41 2.43 2.20 2.21 2.15 2.04 2.04 2.06 2.04 2.06 2.07 2.03 2.05 2.17 2.31 2.45 2.73 2.96 2.95
1.87 2.01 2.16 2.32 2.33 2.40 2.70 2.80 2.92 2.97 2.92 2.83 2.80 2.64 2.64 2.60 2.50 2.35 2.25 2.22 2.32 2.47 2.56 2.51 2.45 2.43 2.18 2.10 1.96 1.92 1.98 1.88 1.80 1.91 1.92 1.94 1.98 1.99 2.09 2.31 2.55 2.65 2.72
2.01 2.12 2.25 2.33 2.38 2.48 2.59 2.64 2.74 2.81 2.77 2.65 2.68 2.62 2.55 2.54 2.51 2.25 2.03 2.01 2.08 2.11 2.27 2.45 2.38 2.27 2.06 1.85 1.80 1.76 1.68 1.57 1.59 1.64 1.63 1.65 1.74 1.84 1.94 2.09 2.31 2.46 2.46
2.11 2.17 2.27 2.37 2.35 2.42 2.55 2.66 2.76 2.83 2.92 2.83 2.69 2.56 2.52 2.48 2.36 2.19 1.98 1.88 2.01 2.12 2.22 2.30 2.19 2.09 1.89 1.73 1.64 1.56 1.51 1.59 1.63 1.60 1.63 1.75 1.86 1.89 1.88 1.92 2.07 2.24 2.27
2.07 2.16 2.18 2.21 2.28 2.39 2.46 2.57 2.56 2.63 2.67 2.64 2.55 2.51 2.46 2.37 2.23 2.16 1.96 1.83 1.95 2.13 2.21 2.22 2.09 2.03 1.90 1.80 1.73 1.68 1.68 1.71 1.67 1.66 1.73 1.74 1.76 1.84 1.84 1.86 1.98 2.02 1.98
2.14 2.17 2.14 2.09 2.14 2.19 2.26 2.28 2.31 2.20 2.19 2.13 2.11 2.11 2.03 1.93 1.83 1.70 1.67 1.67 1.76 1.94 1.94 1.99 2.12 2.11 2.05 1.96 1.86 1.77 1.74 1.71 1.67 1.71 1.82 1.85 1.80 1.78 1.83 1.82 1.89 1.94 1.88
2.03 2.08 2.09 2.08 2.10 2.10 2.18 2.17 2.22 2.15 2.03 1.90 1.82 1.83 1.88 1.86 1.79 1.75 1.76 1.79 1.77 1.82 1.73 1.84 2.00 2.01 2.03 2.00 1.88 1.73 1.67 1.68 1.78 1.78 1.83 1.86 1.92 1.92 1.95 1.93 1.92 1.99 1.93
1.74 1.84 1.99 2.08 2.12 2.14 2.24 2.33 2.41 2.43 2.31 2.07 1.90 1.83 1.76 1.74 1.67 1.68 1.75 1.71 1.62 1.63 1.66 1.81 1.90 1.90 1.90 1.86 1.79 1.72 1.74 1.77 1.85 1.83 1.84 1.89 1.93 1.96 1.99 2.00 1.97 1.94 1.92
1.67 1.68 1.70 1.77 1.89 2.00 2.02 2.09 2.20 2.31 2.36 2.26 2.08 1.98 1.91 1.80 1.66 1.61 1.57 1.41 1.45 1.58 1.73 1.77 1.83 1.84 1.73 1.68 1.66 1.61 1.65 1.77 1.86 1.91 1.88 1.93 1.97 2.02 2.03 2.00 2.05 2.04 1.92
1.72 1.75 1.68 1.61 1.60 1.68 1.76 1.86 1.98 2.15 2.24 2.21 2.14 2.02 1.91 1.79 1.51 1.43 1.36 1.32 1.41 1.48 1.55 1.58 1.61 1.60 1.52 1.55 1.61 1.60 1.58 1.69 1.82 1.86 1.82 1.86 1.93 1.97 1.91 1.88 1.90 1.93 1.80
1.70 1.70 1.71 1.65 1.65 1.70 1.76 1.84 1.88 1.95 2.00 1.95 1.86 1.79 1.70 1.51 1.37 1.30 1.30 1.33 1.40 1.48 1.54 1.58 1.58 1.51 1.50 1.57 1.66 1.68 1.64 1.70 1.79 1.82 1.83 1.85 1.92 1.94 1.84 1.81 1.81 1.82 1.81
1.71 1.64 1.58 1.58 1.66 1.72 1.78 1.87 1.92 1.92 1.87 1.78 1.69 1.59 1.57 1.41 1.35 1.35 1.36 1.38 1.44 1.57 1.61 1.61 1.64 1.60 1.55 1.58 1.66 1.75 1.79 1.78 1.80 1.81 1.77 1.78 1.87 1.90 1.92 1.89 1.88 1.88 1.92
1.79 1.70 1.66 1.67 1.70 1.71 1.72 1.78 1.83 1.81 1.77 1.71 1.62 1.55 1.50 1.46 1.39 1.44 1.50 1.59 1.68 1.68 1.63 1.60 1.59 1.56 1.56 1.59 1.58 1.65 1.77 1.83 1.81 1.79 1.84 1.87 1.84 1.81 1.84 1.79 1.78 1.80 1.82
1.84 1.76 1.67 1.64 1.65 1.67 1.73 1.82 1.81 1.73 1.65 1.64 1.66 1.67 1.64 1.64 1.59 1.57 1.63 1.72 1.68 1.56 1.47 1.47 1.48 1.46 1.49 1.56 1.53 1.50 1.55 1.68 1.71 1.66 1.66 1.72 1.74 1.74 1.80 1.78 1.76 1.76 1.82
1.84 1.83 1.72 1.62 1.62 1.66 1.69 1.77 1.78 1.75 1.68 1.59 1.60 1.63 1.69 1.75 1.69 1.64 1.66 1.65 1.54 1.44 1.33 1.38 1.42 1.39 1.41 1.47 1.46 1.44 1.54 1.57 1.55 1.54 1.53 1.58 1.63 1.71 1.79 1.81 1.81 1.78 1.79
1.65 1.62 1.57 1.49 1.45 1.49 1.58 1.72 1.75 1.78 1.79 1.71 1.69 1.70 1.65 1.62 1.59 1.57 1.58 1.56 1.53 1.42 1.33 1.32 1.34 1.32 1.36 1.37 1.33 1.35 1.36 1.27 1.28 1.39 1.37 1.40 1.56 1.69 1.77 1.84 1.84 1.87 1.85